Simultaneous Nadir Overpasses (SNOs) Predictions

Prediction of SNOs between LANDSAT-8 and METOP-A Satellite Orbit:

Table of predicted SNOs for the next 14.0 days since TLE Epoch: 11/7/2020
Index Date (LANDSAT-8) Time (LANDSAT-8) Lat,Lon (LANDSAT-8) SZA (LANDSAT-8 ) Date (METOP-A) Time (METOP-A) Lat,Lon (METOP-A) SZA (METOP-A ) Distance(km) Time Diff (sec)
1 11/09/2020 14:50:14 -81.45,-176.67 78.54 11/09/2020 14:49:30 -81.45,-176.81 78.58 2.26 44
2 11/09/2020 15:39:41 81.44, -9.28 101.44 11/09/2020 15:40:11 81.45, -9.45 101.44 2.92 30
3 11/12/2020 10:24:29 -81.44,-110.46 77.81 11/12/2020 10:23:53 -81.45,-110.53 77.83 1.52 36
4 11/12/2020 11:13:55 81.45, 57.30 102.22 11/12/2020 11:14:33 81.44, 57.20 102.22 1.79 38
5 11/15/2020 05:58:42 -81.45, -43.89 77.08 11/15/2020 05:58:14 -81.44, -43.88 77.10 0.58 28
6 11/15/2020 06:48:09 81.43, 123.44 102.89 11/15/2020 06:48:55 81.44, 123.44 102.92 1.03 46
7 11/18/2020 01:32:57 -81.43, 22.24 76.46 11/18/2020 01:32:37 -81.44, 22.36 76.44 2.32 20
8 11/18/2020 02:22:23 81.43,-170.06 103.57 11/18/2020 02:23:17 81.44,-169.94 103.60 1.95 54
9 11/20/2020 21:07:11 -81.43, 88.72 75.83 11/20/2020 21:07:00 -81.45, 88.58 75.84 2.71 11
